Location: Spangle
(47.4302°N, 117.3779°W)
Time: 10:55:08
(UTC+00:00)

Envisat - Visible Passes

Search period start: 18 April 2026 00:00
Search period end: 28 April 2026 00:00
Orbit: 761 x 762 km, 98.4° (Epoch: 18 April)

Date Brightness Start Highest point End Pass type
(mag) Time Alt. Az. Time Alt. Az. Time Alt. Az.
18 Apr 4.8 09:28:44 10° NE 09:32:40 22° E 09:34:26 19° ESE visible
18 Apr 3.2 11:06:58 10° N 11:11:54 53° WNW 11:14:34 26° SW visible
19 Apr 3.1 10:29:03 10° NNE 10:34:09 75° ESE 10:36:24 34° S visible
19 Apr 4.6 12:09:09 10° NNW 12:12:30 18° WNW 12:15:50 10° W visible
20 Apr 4.2 09:51:32 10° NNE 09:56:11 35° E 09:58:14 25° SE visible
20 Apr 3.8 11:30:32 10° N 11:35:05 34° WNW 11:38:22 17° WSW visible
21 Apr 5.2 09:14:46 10° NE 09:18:00 17° E 09:20:04 13° ESE visible
21 Apr 3.0 10:52:23 10° N 10:57:26 71° WNW 11:00:12 27° SSW visible
22 Apr 3.5 10:14:37 10° NNE 10:19:37 56° E 10:22:03 29° SSE visible
22 Apr 4.4 11:54:16 10° N 11:58:10 23° WNW 12:02:05 10° WSW visible
23 Apr 4.7 09:37:18 10° NE 09:41:34 26° E 09:43:52 19° SE visible
23 Apr 3.5 11:15:52 10° N 11:20:40 45° WNW 11:24:00 19° SW visible
24 Apr 5.5 09:01:14 10° ENE 09:03:18 12° E 09:05:21 10° ESE visible
24 Apr 2.9 10:37:52 10° NNE 10:42:58 88° ESE 10:45:50 27° SSW visible
25 Apr 3.9 10:00:14 10° NNE 10:05:03 42° E 10:07:40 24° SSE visible
25 Apr 4.0 11:39:28 10° N 11:43:49 29° WNW 11:47:48 12° WSW visible
26 Apr 5.0 09:23:13 10° NE 09:26:56 20° E 09:29:29 14° SE visible
26 Apr 3.1 11:01:15 10° N 11:06:14 59° WNW 11:09:37 20° SW visible
27 Apr 3.2 10:23:23 10° NNE 10:28:27 67° ESE 10:31:27 24° S visible
27 Apr 4.6 12:03:18 10° NNW 12:06:53 20° WNW 12:10:27 10° WSW visible
